This demonstration page uses our WeatherBlox Daily Observations layout. Learn more.

Left ArrowRight Arrow

Hourly Observations for November 14, 2018

Temp ( °F °C ) Dew Point ( °F °C ) Humidity (%) Winds ( mph kmh ) Pressure ( in mb ) Visibility ( mi km ) Precip ( " mm )
12:53 am 00:53 Clear 43 6.1 26 -3.3 51 51 SW 18 30 30.13 1020 10 16 N/A
1:53 am 01:53 Clear 42 5.6 26 -3.3 53 53 SW 17 28 30.14 1021 10 16 N/A
2:53 am 02:53 Clear 42 5.6 27 -2.8 55 55 SW 22 35 30.11 1020 10 16 N/A
3:53 am 03:53 Clear 42 5.6 27 -2.8 55 55 WSW 10 17 30.11 1020 10 16 N/A
4:53 am 04:53 Clear 44 6.7 27 -2.8 51 51 SW 15 24 30.11 1020 10 16 N/A
5:53 am 05:53 Clear 44 6.7 26 -3.3 49 49 SW 16 26 30.08 1019 10 16 N/A
6:53 am 06:53 Clear 42 5.6 26 -3.3 53 53 WNW 12 19 30.07 1018 10 16 N/A
7:53 am 07:53 Sunny 43 6.1 26 -3.3 51 51 SW 24 39 30.04 1017 10 16 N/A
8:53 am 08:53 Sunny 43 6.1 27 -2.8 53 53 SW 24 39 30.03 1017 10 16 N/A
9:53 am 09:53 Sunny 47 8.3 27 -2.8 46 46 SW 26 43 30.01 1016 10 16 N/A
10:53 am 10:53 Sunny 50 10 27 -2.8 41 41 SW 24 39 30.02 1017 10 16 N/A
11:53 am 11:53 Sunny 51 10.6 26 -3.3 38 38 WSW 21 33 29.99 1016 10 16 N/A
12:53 pm 12:53 Sunny 55 12.8 20 -6.7 25 25 W 28 44 29.97 1015 10 16 N/A
1:53 pm 13:53 Sunny 54 12.2 21 -6.1 28 28 W 22 35 29.98 1015 10 16 N/A
2:53 pm 14:53 Sunny 52 11.1 23 -5 32 32 SW 10 17 29.96 1015 10 16 N/A
3:53 pm 15:53 Partly Cloudy 49 9.4 25 -3.9 39 39 SW 21 33 29.94 1014 10 16 N/A
4:53 pm 16:53 Mostly Cloudy 45 7.2 27 -2.8 49 49 WSW 9 15 29.97 1015 10 16 N/A
5:53 pm 17:53 Cloudy 44 6.7 25 -3.9 47 47 WSW 8 13 29.97 1015 10 16 N/A
6:53 pm 18:53 Mostly Cloudy 43 6.1 26 -3.3 51 51 SW 14 22 29.97 1015 10 16 N/A
7:53 pm 19:53 Clear 43 6.1 28 -2.2 56 56 WSW 14 22 29.97 1015 10 16 N/A
8:53 pm 20:53 Clear 42 5.6 29 -1.7 60 60 SW 22 35 29.97 1015 10 16 N/A
9:53 pm 21:53 Mostly Cloudy 43 6.1 30 -1.1 60 60 WSW 18 30 30.00 1016 10 16 N/A
10:53 pm 22:53 Mostly Cloudy 44 6.7 29 -1.7 55 55 W 20 31 30.02 1017 10 16 N/A
11:53 pm 23:53 Mostly Clear 38 3.3 28 -2.2 68 68 VRB 3 6 30.07 1018 10 16 N/A

Powered by AerisWeather